GW5190 Weather Reports


Display with metric or nautical units.
time (UTC)temp
F
wind
direction
speed
MPH
gust
MPH
rain 1hr
in
rain 24hr
in
rain mn
in
humidity
%
barometer
mb
20260510153312 56 41 11.0 13.0 0.00 0.00 0.00 41 1016.3
20260510152809 55 22 4.0 11.0 0.00 0.00 0.00 46 1016.1
20260510152307 55 38 3.0 7.0 0.00 0.00 0.00 46 1016.3
20260510151803 55 33 4.0 9.0 0.00 0.00 0.00 42 1016.4
20260510151301 56 335 4.0 7.0 0.00 0.00 0.00 45 1016.2
20260510150756 55 346 3.0 7.0 0.00 0.00 0.00 44 1016.1
20260510150252 55 71 10.0 10.0 0.00 0.00 0.00 46 1016.1
20260510145748 54 12 6.0 10.0 0.00 0.00 0.00 42 1016.2
20260510145245 56 24 7.0 8.0 0.00 0.00 0.00 45 1016.0
20260510144740 55 35 6.0 9.0 0.00 0.00 0.00 43 1015.8
20260510144238 55 11 4.0 7.0 0.00 0.00 0.00 50 1015.6
20260510143732 54 37 8.0 9.0 0.00 0.00 0.00 48 1015.8
20260510143229 55 24 5.0 8.0 0.00 0.00 0.00 44 1015.7
20260510142725 54 21 4.0 10.0 0.00 0.00 0.00 43 1015.8
20260510142222 53 21 7.0 13.0 0.00 0.00 0.00 46 1015.7
20260510141719 53 34 8.0 10.0 0.00 0.00 0.00 45 1015.6
20260510141218 54 36 6.0 10.0 0.00 0.00 0.00 44 1015.8
20260510140713 53 36 13.0 13.0 0.00 0.00 0.00 48 1015.8
20260510140208 53 25 7.0 7.0 0.00 0.00 0.00 43 1015.6
20260510135703 52 28 5.0 13.0 0.00 0.00 0.00 44 1015.8
20260510135159 52 52 7.0 12.0 0.00 0.00 0.00 45 1015.8
20260510134656 52 9 6.0 10.0 0.00 0.00 0.00 44 1016.0
20260510134153 52 26 5.0 9.0 0.00 0.00 0.00 48 1016.0
20260510133649 52 14 5.0 9.0 0.00 0.00 0.00 50 1015.6
20260510133145 52 20 9.0 13.0 0.00 0.00 0.00 49 1015.6
20260510132641 51 49 10.0 16.0 0.00 0.00 0.00 47 1015.5
20260510132139 52 40 6.0 10.0 0.00 0.00 0.00 54 1015.3
20260510131636 52 34 4.0 12.0 0.00 0.00 0.00 55 1015.3
20260510131134 52 22 5.0 9.0 0.00 0.00 0.00 54 1015.1
20260510130630 51 47 3.0 8.0 0.00 0.00 0.00 60 1015.1
20260510130127 50 32 8.0 9.0 0.00 0.00 0.00 59 1015.0
20260510125623 50 13 7.0 8.0 0.00 0.00 0.00 60 1014.9
20260510125120 49 45 6.0 6.0 0.00 0.00 0.00 65 1014.9
20260510124617 49 23 4.0 5.0 0.00 0.00 0.00 66 1015.0
20260510124114 49 26 5.0 10.0 0.00 0.00 0.00 66 1014.7
20260510123609 49 4 7.0 10.0 0.00 0.00 0.00 66 1014.7
20260510123105 49 46 10.0 11.0 0.00 0.00 0.00 69 1014.6
20260510122601 49 44 5.0 8.0 0.00 0.00 0.00 68 1014.5
20260510122057 49 61 2.0 5.0 0.00 0.00 0.00 71 1014.6
20260510121554 48 25 4.0 9.0 0.00 0.00 0.00 71 1014.7
20260510121052 48 29 6.0 9.0 0.00 0.00 0.00 71 1014.1
20260510120549 48 37 4.0 6.0 0.00 0.00 0.00 74 1014.4
20260510120044 48 50 4.0 5.0 0.00 0.00 0.00 74 1014.0
20260510115541 48 30 3.0 6.0 0.00 0.00 0.00 75 1013.8
20260510115038 48 30 6.0 9.0 0.00 0.00 0.00 75 1013.9
20260510114533 48 18 4.0 6.0 0.00 0.00 0.00 77 1013.4
20260510114030 48 20 3.0 6.0 0.00 0.00 0.00 78 1013.5
20260510113525 48 20 3.0 7.0 0.00 0.00 0.00 78 1013.3
20260510113023 48 36 4.0 7.0 0.00 0.00 0.00 79 1013.2
20260510112520 48 37 4.0 8.0 0.00 0.00 0.00 80 1013.2
20260510112016 48 11 3.0 7.0 0.00 0.00 0.00 81 1013.2
20260510111513 48 11 3.0 6.0 0.00 0.00 0.00 83 1013.1
20260510111009 48 37 3.0 5.0 0.00 0.00 0.00 84 1013.0
20260510110505 48 25 4.0 7.0 0.00 0.00 0.00 85 1012.8
20260510110002 48 27 0.0 3.0 0.00 0.00 0.00 85 1012.6
20260510105456 48 41 3.0 5.0 0.00 0.00 0.00 85 1012.8
20260510104952 48 27 3.0 5.0 0.00 0.00 0.00 85 1012.3
20260510104449 48 7 2.0 3.0 0.00 0.00 0.00 85 1012.2
20260510103945 48 31 2.0 3.0 0.00 0.00 0.00 85 1012.2
20260510103443 47 15 2.0 4.0 0.00 0.00 0.00 85 1012.0
20260510102938 47 45 3.0 5.0 0.00 0.00 0.00 85 1011.9
20260510102434 47 42 2.0 3.0 0.00 0.00 0.00 85 1012.0
20260510101931 47 32 2.0 4.0 0.00 0.00 0.00 85 1011.8
20260510101429 48 24 3.0 3.0 0.00 0.00 0.00 84 1011.6
20260510100927 48 13 3.0 5.0 0.00 0.00 0.00 84 1011.7
20260510100423 48 20 3.0 4.0 0.00 0.00 0.00 84 1011.6
20260510095919 48 48 3.0 5.0 0.00 0.00 0.00 84 1011.5
20260510095415 48 25 2.0 3.0 0.00 0.00 0.00 84 1011.6
20260510094914 48 30 3.0 4.0 0.00 0.00 0.00 85 1011.7
20260510094409 48 56 3.0 5.0 0.00 0.00 0.00 87 1011.5
20260510093906 48 30 3.0 5.0 0.00 0.00 0.00 89 1011.6
20260510093401 47 31 0.0 3.0 0.00 0.00 0.00 90 1011.5
20260510092858 47 57 0.0 3.0 0.00 0.00 0.00 90 1011.1
20260510092355 47 27 0.0 2.0 0.00 0.00 0.00 90 1011.1
20260510091855 47 45 0.0 2.0 0.00 0.00 0.00 90 1011.2
20260510091352 46 74 0.0 2.0 0.00 0.00 0.00 89 1010.5
20260510090849 46 124 0.0 2.0 0.00 0.00 0.00 89 1010.8
20260510090345 46 103 0.0 1.0 0.00 0.00 0.00 88 1010.7
20260510085842 46 147 0.0 2.0 0.00 0.00 0.00 88 1010.7
20260510085342 46 126 0.0 1.0 0.00 0.00 0.00 88 1010.5
20260510084838 47 44 0.0 2.0 0.00 0.00 0.00 87 1010.9
20260510084335 47 124 0.0 1.0 0.00 0.00 0.00 87 1010.3
20260510083831 47 106 0.0 2.0 0.00 0.00 0.00 87 1010.4
20260510083328 48 147 0.0 1.0 0.00 0.00 0.00 87 1010.4
20260510082824 48 166 0.0 0.0 0.00 0.00 0.00 87 1010.5
20260510082321 48 140 0.0 3.0 0.00 0.00 0.00 86 1010.2
20260510081820 48 269 0.0 2.0 0.00 0.00 0.00 85 1010.2
20260510081316 48 99 0.0 1.0 0.00 0.00 0.00 82 1010.1
20260510080812 49 76 0.0 1.0 0.00 0.00 0.00 82 1010.1
20260510080307 49 84 0.0 2.0 0.00 0.00 0.00 80 1009.9
20260510075805 50 49 0.0 2.0 0.00 0.00 0.00 80 1009.8
20260510075305 50 44 0.0 2.0 0.00 0.00 0.00 78 1009.8
20260510074759 50 56 2.0 3.0 0.00 0.00 0.00 78 1009.6
20260510074255 50 47 2.0 4.0 0.00 0.00 0.00 77 1009.5
20260510073752 50 26 2.0 3.0 0.00 0.00 0.00 77 1009.4
20260510073247 51 43 2.0 4.0 0.00 0.00 0.00 76 1009.3
20260510072743 51 41 3.0 5.0 0.00 0.00 0.00 75 1009.6
20260510072240 51 23 3.0 4.0 0.00 0.00 0.00 76 1009.3
20260510071737 51 38 2.0 5.0 0.00 0.00 0.00 75 1009.2
20260510071233 51 29 2.0 4.0 0.00 0.00 0.00 76 1009.2
20260510070732 51 21 3.0 5.0 0.00 0.00 0.00 75 1009.2
20260510070229 51 48 2.0 4.0 0.00 0.00 0.00 75 1009.0
20260510065723 52 19 4.0 5.0 0.00 0.00 0.00 74 1009.0
20260510065220 52 33 6.0 8.0 0.00 0.00 0.00 76 1008.9
20260510064717 52 39 3.0 4.0 0.00 0.00 0.00 79 1008.7
20260510064214 52 32 4.0 7.0 0.00 0.00 0.00 78 1008.8
20260510063711 52 46 4.0 5.0 0.00 0.00 0.00 79 1009.0
20260510063207 52 37 4.0 7.0 0.00 0.00 0.00 79 1009.0
20260510062704 52 13 5.0 7.0 0.00 0.00 0.00 79 1008.9
20260510062200 52 37 6.0 7.0 0.00 0.00 0.00 82 1008.6
20260510061654 52 43 7.0 7.0 0.00 0.00 0.00 82 1009.0
20260510061152 52 15 5.0 6.0 0.00 0.00 0.00 83 1009.0
20260510060648 52 21 3.0 8.0 0.00 0.00 0.00 85 1008.8
20260510060145 52 61 5.0 8.0 0.00 0.00 0.00 86 1008.6
20260510055641 52 3 3.0 15.0 0.00 0.00 0.00 90 1008.7
20260510055140 55 24 5.0 5.0 0.00 0.00 0.00 92 1008.5
20260510054635 55 304 0.0 1.0 0.00 0.00 0.00 92 1008.2
20260510054131 55 186 0.0 1.0 0.00 0.00 0.00 92 1008.1
20260510053630 55 69 0.0 2.0 0.00 0.00 0.00 91 1007.9
20260510053127 55 126 0.0 1.0 0.00 0.00 0.00 91 1008.1
20260510052623 55 54 2.0 4.0 0.00 0.00 0.00 91 1008.0
20260510052119 55 48 1.0 3.0 0.00 0.00 0.00 90 1007.9
20260510051614 56 23 2.0 3.0 0.00 0.00 0.00 89 1007.9
20260510051112 56 234 2.0 3.0 0.00 0.00 0.00 89 1007.9
20260510050609 56 264 1.0 3.0 0.00 0.00 0.00 88 1007.6
20260510050106 56 229 1.0 6.0 0.00 0.00 0.00 87 1007.2
20260510045603 57 15 1.0 4.0 0.00 0.00 0.00 86 1007.5
20260510045059 56 252 4.0 9.0 0.00 0.00 0.00 87 1007.3
20260510044555 56 322 4.0 5.0 0.00 0.00 0.00 86 1006.7
20260510044053 56 315 2.0 5.0 0.00 0.00 0.00 86 1006.5
20260510043549 56 279 2.0 6.0 0.00 0.00 0.00 87 1006.4
20260510043045 55 198 2.0 4.0 0.00 0.00 0.00 89 1006.4
20260510042544 55 194 2.0 5.0 0.00 0.00 0.00 89 1006.5
20260510042039 55 241 1.0 4.0 0.00 0.00 0.00 90 1006.2
20260510041538 55 225 2.0 5.0 0.00 0.00 0.00 90 1006.3
20260510041035 55 232 1.0 4.0 0.00 0.00 0.00 91 1006.2
20260510040531 55 269 2.0 3.0 0.00 0.00 0.00 91 1006.2
20260510040026 55 317 0.0 3.0 0.00 0.00 0.00 91 1006.1
20260510035523 55 220 2.0 3.0 0.00 0.29 0.29 91 1006.2
20260510035023 56 225 3.0 4.0 0.02 0.29 0.29 90 1006.2
20260510034521 56 147 0.0 1.0 0.05 0.29 0.29 90 1006.2
20260510034017 56 261 2.0 4.0 0.09 0.29 0.29 89 1006.5
20260510033513 57 171 2.0 4.0 0.07 0.28 0.28 88 1006.8
20260510033012 56 257 5.0 7.0 0.12 0.27 0.27 88 1006.4
20260510032508 56 180 2.0 10.0 0.19 0.27 0.27 90 1006.4
20260510032008 56 273 3.0 6.0 0.07 0.25 0.25 90 1006.4
20260510031504 56 203 3.0 7.0 0.02 0.24 0.24 88 1006.5
20260510031000 56 232 3.0 11.0 0.02 0.24 0.24 88 1006.4
20260510030455 56 283 5.0 7.0 0.02 0.24 0.24 88 1006.3
20260510025953 56 239 0.0 3.0 0.00 0.23 0.23 88 1006.2
20260510025450 56 263 3.0 5.0 0.00 0.23 0.23 89 1006.4
20260510024947 56 263 2.0 7.0 0.00 0.23 0.23 89 1006.3
20260510024444 56 255 2.0 5.0 0.00 0.23 0.23 89 1006.2
20260510023939 56 268 3.0 3.0 0.00 0.23 0.23 88 1006.1
20260510023436 56 268 0.0 4.0 0.02 0.23 0.23 88 1006.1
20260510022933 56 289 0.0 5.0 0.05 0.23 0.23 88 1006.1
20260510022432 57 254 4.0 6.0 0.12 0.23 0.23 86 1006.5
20260510021931 57 227 9.0 21.0 0.17 0.22 0.22 86 1006.4
20260510021430 57 254 12.0 17.0 0.07 0.21 0.21 91 1006.6
20260510020927 57 245 4.0 8.0 0.00 0.20 0.20 87 1006.4
20260510020427 56 269 0.0 3.0 0.00 0.20 0.20 88 1006.0
20260510015923 56 234 1.0 3.0 0.00 0.20 0.20 89 1005.8
20260510015419 56 216 0.0 2.0 0.00 0.20 0.20 89 1005.8
20260510014914 55 243 0.0 2.0 0.00 0.20 0.20 89 1005.8
20260510014412 55 202 0.0 3.0 0.00 0.20 0.20 90 1005.6
20260510013908 55 296 2.0 3.0 0.00 0.20 0.20 90 1005.9
20260510013403 55 222 3.0 5.0 0.00 0.20 0.20 91 1005.6
20260510012858 55 225 0.0 4.0 0.00 0.20 0.20 91 1005.7
20260510012353 55 162 0.0 2.0 0.00 0.20 0.20 91 1005.6
20260510011848 55 150 0.0 1.0 0.00 0.20 0.20 91 1005.7
20260510011344 55 206 0.0 2.0 0.00 0.20 0.20 91 1005.7
20260510010840 55 193 0.0 2.0 0.00 0.20 0.20 91 1005.5
20260510010338 55 202 0.0 1.0 0.00 0.20 0.20 90 1005.3
20260510005834 55 240 0.0 1.0 0.00 0.20 0.20 90 1005.6
20260510005330 56 201 0.0 1.0 0.00 0.20 0.20 89 1005.4
20260510004828 56 252 0.0 2.0 0.00 0.20 0.20 89 1005.4
20260510004326 56 283 2.0 3.0 0.00 0.20 0.20 89 1005.3
20260510003823 56 150 0.0 2.0 0.00 0.20 0.20 88 1005.3
20260510003320 56 286 1.0 3.0 0.00 0.20 0.20 88 1005.5
20260510002819 56 180 1.0 3.0 0.00 0.20 0.20 88 1005.2
20260510002316 57 291 1.0 5.0 0.00 0.20 0.20 87 1005.3
20260510001812 57 228 2.0 6.0 0.00 0.20 0.20 87 1005.4
20260510001311 57 202 0.0 6.0 0.00 0.20 0.20 87 1005.2
20260510000806 57 263 3.0 9.0 0.00 0.20 0.20 87 1005.3
20260510000305 57 251 0.0 6.0 0.00 0.20 0.20 88 1005.4
20260509235801 57 260 4.0 8.0 0.00 0.20 0.20 89 1005.3
20260509235257 57 281 1.0 4.0 0.00 0.20 0.20 89 1005.4
20260509234753 56 210 3.0 9.0 0.00 0.20 0.20 90 1005.3
20260509234250 56 257 0.0 5.0 0.00 0.20 0.20 90 1005.4
20260509233749 57 273 4.0 8.0 0.00 0.20 0.20 90 1005.5
20260509233246 56 242 5.0 10.0 0.02 0.20 0.20 91 1005.7
20260509232741 56 204 3.0 7.0 0.05 0.20 0.20 92 1005.1
20260509232239 56 240 2.0 8.0 0.07 0.19 0.19 92 1005.2
20260509231735 56 240 6.0 12.0 0.14 0.19 0.19 92 1005.4
20260509231232 56 177 1.0 7.0 0.28 0.18 0.18 92 1005.5
20260509230730 56 249 2.0 9.0 0.50 0.17 0.17 91 1006.0
20260509230227 56 250 7.0 16.0 0.64 0.13 0.13 90 1005.8
20260509225722 57 238 6.0 13.0 0.45 0.08 0.08 88 1004.9
20260509225218 57 47 10.0 18.0 0.09 0.02 0.02 86 1004.5
20260509224714 60 58 9.0 9.0 0.00 0.01 0.01 77 1004.5
20260509224211 68 56 3.0 20.0 0.00 0.01 0.01 57 1004.3
20260509223708 69 256 5.0 9.0 0.00 0.01 0.01 47 1003.4
20260509223205 69 250 17.0 21.0 0.00 0.01 0.01 46 1003.1
20260509222702 69 150 2.0 16.0 0.00 0.01 0.01 46 1002.5
20260509222157 70 214 8.0 18.0 0.00 0.01 0.01 46 1002.5
20260509221653 70 232 4.0 14.0 0.00 0.01 0.01 46 1002.8
20260509221149 70 257 5.0 10.0 0.00 0.01 0.01 46 1002.8
20260509220645 70 273 7.0 17.0 0.00 0.01 0.01 48 1003.0
20260509220141 70 236 3.0 13.0 0.00 0.01 0.01 48 1002.7
20260509215638 70 215 6.0 15.0 0.00 0.01 0.01 47 1002.9
20260509215135 70 209 7.0 27.0 0.00 0.01 0.01 48 1002.9
20260509214632 70 217 5.0 19.0 0.00 0.01 0.01 47 1002.6
20260509214128 73 232 7.0 20.0 0.00 0.01 0.01 45 1002.5
20260509213625 72 253 3.0 17.0 0.00 0.01 0.01 47 1002.8
20260509213121 73 185 6.0 13.0 0.00 0.01 0.01 46 1002.6
20260509212619 72 214 5.0 14.0 0.00 0.01 0.01 46 1002.6
20260509212115 72 220 3.0 12.0 0.00 0.01 0.01 48 1002.5
20260509211611 71 233 13.0 20.0 0.00 0.01 0.01 48 1002.5
20260509211108 72 247 10.0 15.0 0.00 0.01 0.01 48 1002.6
20260509210605 72 187 2.0 17.0 0.00 0.01 0.01 48 1002.8
20260509205602 72 268 8.0 13.0 0.00 0.01 0.01 48 1002.9
20260509205057 72 216 7.0 16.0 0.00 0.01 0.01 48 1003.1
20260509204553 71 251 5.0 25.0 0.00 0.01 0.01 49 1003.1
20260509204050 72 246 12.0 12.0 0.00 0.01 0.01 48 1003.2
20260509203546 71 202 4.0 19.0 0.00 0.01 0.01 50 1002.9
20260509203045 71 304 8.0 13.0 0.00 0.01 0.01 50 1003.6
20260509202544 71 244 3.0 17.0 0.00 0.01 0.01 50 1003.5
20260509202040 71 137 3.0 16.0 0.00 0.01 0.01 51 1003.6
20260509201535 70 210 4.0 15.0 0.00 0.01 0.01 50 1003.6
20260509201034 70 177 5.0 18.0 0.00 0.01 0.01 52 1003.8
20260509200532 72 224 8.0 16.0 0.00 0.01 0.01 49 1003.8
20260509200030 72 276 8.0 15.0 0.00 0.01 0.01 48 1004.0
20260509195526 72 116 4.0 15.0 0.00 0.01 0.01 49 1003.7
20260509195025 70 197 2.0 22.0 0.00 0.01 0.01 52 1003.7
20260509194520 70 198 1.0 15.0 0.00 0.01 0.01 52 1004.2
20260509194018 71 286 9.0 13.0 0.00 0.01 0.01 49 1004.0
20260509193518 70 178 2.0 17.0 0.00 0.01 0.01 50 1004.1
20260509193015 70 204 7.0 19.0 0.00 0.01 0.01 49 1004.2
20260509192512 70 220 9.0 12.0 0.00 0.01 0.01 50 1004.4
20260509192007 70 241 8.0 21.0 0.00 0.01 0.01 52 1004.5
20260509191502 69 266 11.0 28.0 0.00 0.01 0.01 53 1004.2
20260509190957 69 175 3.0 13.0 0.00 0.01 0.01 54 1004.6
20260509190455 70 263 5.0 17.0 0.00 0.01 0.01 54 1004.6
20260509185952 69 256 15.0 24.0 0.00 0.01 0.01 54 1004.8
20260509185449 69 204 14.0 16.0 0.00 0.01 0.01 54 1004.7
20260509184947 69 263 8.0 18.0 0.00 0.01 0.01 54 1005.0
20260509184445 69 253 5.0 13.0 0.00 0.01 0.01 55 1004.9
20260509183941 69 263 5.0 14.0 0.00 0.01 0.01 54 1005.0
20260509183440 67 236 11.0 20.0 0.00 0.01 0.01 57 1005.0
20260509182937 68 307 4.0 14.0 0.00 0.01 0.01 56 1004.9
20260509182433 68 262 7.0 16.0 0.00 0.01 0.01 56 1005.1
20260509181931 67 237 4.0 18.0 0.00 0.01 0.01 56 1005.0
20260509181429 67 268 12.0 18.0 0.00 0.01 0.01 56 1004.9
20260509180926 67 273 7.0 15.0 0.00 0.01 0.01 57 1005.0
20260509180421 68 238 6.0 15.0 0.00 0.01 0.01 55 1004.6
20260509175919 68 193 3.0 17.0 0.00 0.01 0.01 57 1004.6
20260509175414 68 176 3.0 7.0 0.00 0.01 0.01 57 1004.8
20260509174911 68 159 4.0 11.0 0.00 0.01 0.01 56 1004.7
20260509174407 68 191 6.0 12.0 0.00 0.01 0.01 57 1004.9
20260509173904 67 287 11.0 14.0 0.00 0.01 0.01 59 1005.1
20260509173403 67 313 2.0 16.0 0.00 0.01 0.01 59 1005.1
20260509172900 66 250 7.0 14.0 0.00 0.01 0.01 60 1005.2
20260509172357 66 245 7.0 20.0 0.00 0.01 0.01 60 1005.3
20260509171853 66 245 4.0 16.0 0.00 0.01 0.01 59 1005.1
20260509171349 67 224 2.0 13.0 0.00 0.01 0.01 60 1005.2
20260509170845 67 306 4.0 11.0 0.00 0.01 0.01 60 1005.2
20260509170341 66 161 5.0 12.0 0.00 0.01 0.01 58 1005.1
20260509165836 65 272 5.0 13.0 0.00 0.01 0.01 63 1005.0
20260509165330 65 267 7.0 20.0 0.00 0.01 0.01 61 1005.0
20260509164827 66 219 11.0 11.0 0.00 0.01 0.01 60 1004.8
20260509164323 65 250 6.0 10.0 0.00 0.01 0.01 62 1005.2
20260509163819 65 207 3.0 12.0 0.00 0.01 0.01 63 1005.1
20260509163316 64 267 4.0 15.0 0.00 0.01 0.01 62 1004.9
20260509162815 66 173 4.0 10.0 0.00 0.01 0.01 62 1005.0
20260509162308 65 240 5.0 10.0 0.00 0.01 0.01 63 1005.1
20260509161805 64 248 5.0 10.0 0.00 0.01 0.01 64 1005.2
20260509161301 64 277 3.0 8.0 0.00 0.01 0.01 64 1005.4
20260509160756 65 268 10.0 13.0 0.00 0.01 0.01 62 1005.5
20260509160253 65 273 13.0 16.0 0.00 0.01 0.01 60 1005.8
20260509155748 64 242 13.0 19.0 0.00 0.01 0.01 65 1005.8
20260509155245 63 184 3.0 13.0 0.00 0.01 0.01 69 1005.7
20260509154741 63 247 12.0 15.0 0.00 0.01 0.01 69 1005.6
20260509154238 62 269 5.0 13.0 0.00 0.01 0.01 71 1005.6
20260509153735 61 260 4.0 15.0 0.00 0.01 0.01 72 1005.7